Regional Weather Roundup
Issued by NWS

Home | Current Version | Previous Version | Text Only | Print | Product List | Glossary On
Versions: 1 2 3 4 5 6 7 8 9 10 11 12 13 14 15 16 17 18 19 20 21 22 23 24 25 26 27 28 29 30 31 32 33 34 35 36 37 38 39 40 41 42 43 44 45 46 47 48 49 50
000
ASUS43 KMKX 051711
RWRWI

WISCONSIN REGIONAL WEATHER ROUNDUP
NATIONAL WEATHER SERVICE MILWAUKEE/SULLIVAN WI
1100 AM CST MON DEC 05 2016

NOTE: "FAIR" INDICATES FEW OR NO CLOUDS BELOW 12,000 FEET WITH NO
SIGNIFICANT WEATHER AND/OR OBSTRUCTIONS TO VISIBILITY.

WIZ001-002-006>008-014>016-023>028-051800-
NORTHWEST WISCONSIN

CITY           SKY/WX    TMP DP  RH WIND       PRES   REMARKS
SUPERIOR ARPT  CLOUDY    35  29  79 CALM      29.81S
ASHLAND        MOSUNNY   37  30  75 VRB6      29.82F WCI  32
HAYWARD        PTSUNNY   32  28  85 SE5       29.82S WCI  27
SIREN          PTSUNNY   33  31  93 SE8       29.80S WCI  25
CUMBERLAND     FOG       30  28  93 SE8       29.81F VSB 3/4 WCI  23
RICE LAKE      FOG       29  29  98 SE6       29.84F VSB 1/2 WCI  23
CHETEK         FOG       29  29  99 SE7       29.84F VSB 1   WCI  22
LADYSMITH      FOG       31  31  99 SE6       29.86S VSB 1/2 WCI  26
EAU CLAIRE     CLOUDY    32  32 100 SE9       29.84S FOG     WCI  24
MENOMONIE      CLOUDY    32  32 100 E7        29.84S FOG     WCI  26
NEW RICHMOND   CLOUDY    32  32 100 SE9       29.77F FOG     WCI  24
OSCEOLA        PTSUNNY   32  32 100 E13G18    29.78F WCI  22
$$

WIZ003>005-009-010-017-018-051800-
NORTH CENTRAL WISCONSIN

CITY           SKY/WX    TMP DP  RH WIND       PRES   REMARKS
MANITOWISH WTR MOSUNNY   33  30  91 S9        29.81S WCI  25
ARBOR VITAE    SUNNY     34  30  84 S5        29.82R WCI  30
WOODRUFF       SUNNY     34  30  84 S5        29.82R WCI  30
RHINELANDER    SUNNY     34  29  82 CALM      29.84S
EAGLE RIVER    SUNNY     33  27  77 SW3       29.82S
LAND O LAKES   SUNNY     36  30  79 SW5       29.83S WCI  32
PHILLIPS       CLOUDY    30  29  95 S7        29.83R WCI  23
TOMAHAWK       PTSUNNY   33  28  84 CALM      29.85R
MEDFORD        CLOUDY    29  29  97 S10       29.86R FOG     WCI  20
MERRILL        CLOUDY    32  30  92 S7        29.88R WCI  26
$$

WIZ029-030-035-036-043>047-051800-
CENTRAL WISCONSIN

CITY           SKY/WX    TMP DP  RH WIND       PRES   REMARKS
WAUSAU         CLOUDY    32  30  92 S5        29.86F WCI  27
MOSINEE        PTSUNNY   32  30  93 S7        29.89S WCI  26
MARSHFIELD     CLOUDY    32  29  88 S10       29.86S WCI  24
STEVENS POINT  CLOUDY    31  30  97 S6        29.89F WCI  25
WAUPACA        CLOUDY    36  31  83 CALM      29.92F
WAUTOMA        CLOUDY    35  31  85 S8        29.92F WCI  29
WISC RAPIDS    CLOUDY    33  32  96 SW7       29.91R WCI  27
CAMP DOUGLAS   CLOUDY    34  32  93 S5        29.90R WCI  30
$$

WIZ011>013-019>022-031-037>040-048>050-051800-
NORTHEAST WISCONSIN

CITY           SKY/WX    TMP DP  RH WIND       PRES   REMARKS
ANTIGO         MOSUNNY   33  29  85 SW6       29.86S WCI  27
SHAWANO        CLOUDY    37  31  81 SW9       29.91S WCI  30
OCONTO         CLOUDY    35  31  85 W7        29.91S WCI  29
STURGEON BAY   CLOUDY    38  32  79 SW9       29.92S WCI  31
GREEN BAY      CLOUDY    36  31  82 SW10      29.93S WCI  28
MANITOWOC      CLOUDY    35  30  82 SW8       29.96R WCI  29
APPLETON       CLOUDY    34  32  93 SW10      29.91S WCI  26
CLINTONVILLE   CLOUDY    34  30  86 SW9       29.91S WCI  26
OSHKOSH        CLOUDY    34  31  88 S9        29.93S WCI  27
$$

WIZ032>034-041-042-053>061-051800-
SOUTHWEST WISCONSIN

CITY           SKY/WX    TMP DP  RH WIND       PRES   REMARKS
LA CROSSE      CLOUDY    36  33  89 S8        29.88S WCI  30
SPARTA         PTSUNNY   35  33  92 S3        29.89F
VIROQUA        CLOUDY    32  32 100 S10       29.87S VSB 1   WCI  24
BOSCOBEL       CLOUDY    36  32  85 VRB5      29.93S WCI  32
PRAIRIE DU CHI CLOUDY    34  32  92 SE7       29.92S FOG     WCI  28
PLATTEVILLE    CLOUDY    32  32 100 S9        29.93F VSB 1/2 WCI  25
$$

WIZ056-057-062-063-064-067-068-051800-
SOUTH CENTRAL WISCONSIN

CITY           SKY/WX    TMP DP  RH WIND       PRES   REMARKS
REEDSBURG      CLOUDY    33  33 100 S7        29.91S FOG     WCI  26
BARABOO/DELLS  CLOUDY    33  32  96 S7        29.90F FOG     WCI  27
LONE ROCK      CLOUDY    35  32  88 S5        29.94S WCI  31
MINERAL POINT  FOG       34  34 100 S14       29.92F VSB 1/4 WCI  24
MADISON        CLOUDY    33  31  92 S16       29.94S FOG     WCI  23
MIDDLETON      CLOUDY    34  34 100 S9        29.94S WCI  27
WATERTOWN      CLOUDY    32  32 100 S8        29.95F FOG     WCI  25
MONROE         FOG       32  32 100 S15       29.95S VSB<1/4 WCI  22
JANESVILLE     CLOUDY    34  34 100 S12       29.97S FOG     WCI  25
$$

WIZ051-052-058>065-066-070>072-051800-
SOUTHEAST WISCONSIN

CITY           SKY/WX    TMP DP  RH WIND       PRES   REMARKS
MILWAUKEE      CLOUDY    34  31  88 S8        29.98F FOG     WCI  27
WAUKESHA       CLOUDY    32  30  93 S7        29.98S FOG     WCI  26
MILWAUKEE/TIMM CLOUDY    34  28  80 S7        29.99S FOG     WCI  28
RACINE         CLOUDY    33  30  88 S7        30.00F FOG     WCI  27
BURLINGTON     CLOUDY    32  32  98 S14       29.99S FOG     WCI  22
KENOSHA        CLOUDY    33  31  92 S8        30.00S FOG     WCI  26
FOND DU LAC    CLOUDY    34  30  85 S9        29.94S WCI  27
SHEBOYGAN      CLOUDY    34  30  85 SW8       29.96S WCI  27
WEST BEND      CLOUDY    32  32 100 S7        29.96F WCI  26
JUNEAU         CLOUDY    32  32  99 S12       29.95F FOG     WCI  23
$$

LSZ147-162-051800-
LAKE SUPERIOR

STATION/POSITION TIME  TEMP    WIND        PRES    WAVE
                       AIR SEA DIR/SP/G            HT/PER
                 (UTC) (F)     (DEG/KT/KT) (MB)    (FT/S)
DEVILS ISLAND    1700   36     270/  9/ 11 1010.3F
PORT WING        1640   36     150/  1/  3 1010.2R
SAXON HARBOR     1630   38     210/  5/  8 1010.2S
$$

LMZ867-665-643>646-051800-
LAKE MICHIGAN

STATION/POSITION TIME  TEMP    WIND        PRES    WAVE
                       AIR SEA DIR/SP/G            HT/PER
                 (UTC) (F)     (DEG/KT/KT) (MB)    (FT/S)
CHAMBERS ISLAND  1640   38     200/  8/ 11 1012.5R
NORTHPORT PIER   1640   39     260/  2/  9 1012.9R
SISTER BAY       1638   48     290/ 13/ 14   N/A
ALGOMA LAKESHORE 1636          260/  8/ 11   N/A
KEWAUNEE LAKESHO 1648   36     230/  4/  8 1013.5S
SHEBOYGAN LAKESH 1700   34     210/ 11/ 13 1015.1F
PORT WASHINGTON  1640   36     220/  6/  9 1016.3S
MILWAUKEE LAKESH 1650   34     200/  9/ 10   N/A
KENOSHA   LAKESH 1700   33     180/  9/ 15 1016.3
$$

TC  - TEMPERATURE IN CELSIUS
VSB - VISIBILITY IN STATUTE MILES
WCI - WIND CHILL INDEX
HX  - HEAT INDEX





USA.gov is the U.S. government's official web portal to all federal, state and local government web resources and services.